Hourly Data Report for October 03, 2017

All times are specified in Local Standard Time (LST). Add 1 hour to adjust for Daylight Saving Time where and when it is observed.

TADOULE LAKE
MANITOBA

58°42'22.000" N
98°30'44.000" W
281.30 m
5062835
71272
YBQ

Related Data

No related data is available for this station

Download Data

Hourly Data (October 2017)
Hourly Data Report for October 3, 2017
Temp Definition
°C
Dew Point Temp Definition
°C
Rel Hum Definition
%
Wind Dir Definition
10's deg

Wind Spd Definition
km/h
Visibility Definition
km
Stn Press Definition
kPa
Hmdx Definition


Wind Chill Definition


Weather Definition


TIME
00:00 Legend Double Dagger -0.4 -2.0 89 31 11 16.1 98.42   -4 LegendNANA
01:00 Legend Double Dagger -0.8 -1.7 94 30 8 16.1 98.43   -4 LegendNANA
02:00 Legend Double Dagger -0.7 -1.4 95 29 11 16.1 98.44   -4 LegendNANA
03:00 Legend Double Dagger -0.2 -0.8 96 27 8 16.1 98.49   -3 LegendNANA
04:00 Legend Double Dagger -0.3 -0.6 98 28 8 16.1 98.52   -3 LegendNANA
05:00 Legend Double Dagger 0.4 0.0 97 30 8 16.1 98.53     LegendNANA
06:00 Legend Double Dagger 0.1 0.1 100 1 5 3.2 98.61     Snow
07:00 Legend Double Dagger -1.6 -1.6 100 27 4 16.1 98.59   -3 LegendNANA
08:00 Legend Double Dagger 0.0 0.0 100 25 8 16.1 98.62   -3 LegendNANA
09:00 Legend Double Dagger 0.7 0.6 99 27 5 16.1 98.67     LegendNANA
10:00 Legend Double Dagger 2.0 -1.6 77 30 11 16.1 98.66     LegendNANA
11:00 Legend Double Dagger 2.6 -2.4 70 31 9 16.1 98.65     LegendNANA
12:00 Legend Double Dagger 3.3 -1.4 71 25 13 16.1 98.62     LegendNANA
13:00 Legend Double Dagger 4.3 -0.4 72 26 9 16.1 98.54     LegendNANA
14:00 Legend Double Dagger 4.2 -0.4 72 27 9 16.1 98.45     LegendNANA
15:00 Legend Double Dagger 5.1 0.5 72 24 11 16.1 98.37     LegendNANA
16:00 Legend Double Dagger 6.0 1.2 71 24 11 16.1 98.32     LegendNANA
17:00 Legend Double Dagger 5.7 1.6 75 22 13 16.1 98.17     LegendNANA
18:00 Legend Double Dagger 5.5 2.2 79 21 13 16.1 98.02     LegendNANA
19:00 Legend Double Dagger 5.5 1.9 78 20 17 16.1 97.83     LegendNANA
20:00 Legend Double Dagger 5.6 2.0 78 22 15 16.1 97.75     LegendNANA
21:00 Legend Double Dagger 5.8 1.9 76 23 21 16.1 97.67     LegendNANA
22:00 Legend Double Dagger 5.7 1.7 75 23 17 16.1 97.52     LegendNANA
23:00 Legend Double Dagger 5.7 1.4 74 23 18 16.1 97.36     LegendNANA

Notes on Data Quality.

Legend

  • E = Estimated
  • M = Missing
  • NA = Not Available
  • ‡ = Partner data that is not subject to review by the National Climate Archives
Date modified: